Regional Weather Roundup
Issued by NWS

Home | Current Version | Previous Version | Graphics & Text | Print | Product List | Glossary On
Versions: 1 2 3 4 5 6 7 8 9 10 11 12 13 14 15 16 17 18 19 20 21 22 23 24 25 26 27
000
ASUS45 KPSR 300110
RWRAZ

ARIZONA HOURLY REGIONAL WEATHER ROUNDUP
NATIONAL WEATHER SERVICE PHOENIX AZ
600 PM MST FRI APR 29 2016

NOTE: FAIR INDICATES FEW OR NO CLOUDS BELOW 12,000 FEET WITH NO
SIGNIFICANT WEATHER AND/OR OBSTRUCTIONS TO VISIBILITY.

AZZ001>003-036-300200-
NORTHWEST ARIZONA

CITY           SKY/WX    TMP DP  RH WIND       PRES   REMARKS
BULLHEAD CITY  MOSUNNY   82  34  17 S13G20    29.72F
KINGMAN        MOSUNNY   68  35  29 W12G18    29.83F
$$

AZZ004>008-015-016-018-300200-
NORTH CENTRAL ARIZONA

CITY           SKY/WX    TMP DP  RH WIND       PRES   REMARKS
GRAND CANYON   PTSUNNY   50  32  50 W9        29.90S
WILLIAMS       PTSUNNY   46  36  66 N5        29.99S
PRESCOTT       LGT RAIN  55  37  50 NW9G26    29.89S
FLAGSTAFF      LGT RAIN  45  37  73 SW15      29.92S
PAYSON         LGT RAIN  48  43  81 VRB3      29.95S
PAGE           MOSUNNY   60  35  39 SW12G23   29.77S
$$

AZZ009>014-017-300200-
NORTHEAST ARIZONA

CITY           SKY/WX    TMP DP  RH WIND       PRES   REMARKS
WINSLOW        PTSUNNY   58  35  42 SW22G29   29.84R
SAINT JOHNS    PTSUNNY   48  37  65 SW17      29.87R
WINDOW ROCK    PTSUNNY   45  31  58 N6        29.86S
SHOW LOW       LGT RAIN  43  34  70 N10G20    29.94R
$$

AZZ023-300200-
GREATER PHOENIX AREA

CITY           SKY/WX    TMP DP  RH WIND       PRES   REMARKS
PHOENIX        PTSUNNY   80  36  20 W16       29.74F
BUCKEYE        PTSUNNY   81  34  18 SW12G18   29.77S
GLENDALE       PTSUNNY   81  36  19 S16G26    29.76F
LUKE AFB       MOSUNNY   81  37  20 SW17G24   29.74S
DEER VALLEY    PTSUNNY   77  32  19 W18       29.75F
SCOTTSDALE     PTSUNNY   78  32  18 SW12G22   29.77F
MESA-FALCON    PTSUNNY  N/A N/A N/A W9        29.75F
MESA-GATEWAY   PTSUNNY   77  36  22 SW14G21   29.79F
CHANDLER       SUNNY     79  34  19 SW12      29.77F
$$

AZZ027-028-300200-
SOUTHWEST MARICOPA COUNTY AND PINAL COUNTY

CITY           SKY/WX    TMP DP  RH WIND       PRES   REMARKS
CASA GRANDE    PTSUNNY   75  34  22 W10G17    29.81F
GILA BEND      MOSUNNY   80  32  17 SW10      29.76S
$$

AZZ503-504-507>509-300200-
SOUTHEAST ARIZONA

CITY           SKY/WX    TMP DP  RH WIND       PRES   REMARKS
TUCSON         PTSUNNY   73  31  21 W13       29.86S
DAVIS-MONTHAN  PTSUNNY   73  32  22 W10G20    29.84S
RYAN FIELD     PTSUNNY   75  32  20 W12       29.86S
NOGALES        MOSUNNY   67  29  24 W9        29.90S
SIERRA VISTA   MOSUNNY   63  27  25 NW10      29.92F
DOUGLAS        PTSUNNY   69  27  20 NW20      29.88S
SAFFORD        MOSUNNY   71  30  21 NW21      29.81F
$$

AZZ020-021-025-026-031-300200-
SOUTHWEST ARIZONA

CITY           SKY/WX    TMP DP  RH WIND       PRES   REMARKS
YUMA           MOSUNNY   84  33  16 W9        29.75F
$$

CAZ031-033-041-043-047-048-061-300200-
SOUTHERN CALIFORNIA

CITY           SKY/WX    TMP DP  RH WIND       PRES   REMARKS
DOWNTOWN L.A.  SUNNY     63  51  65 VRB5      29.92F
L.A. AIRPORT   MOSUNNY   60  52  74 W13       29.94F
SAN DIEGO      PTSUNNY   64  52  64 NW8       29.97F
BURBANK        SUNNY     64  49  57 S10       29.90F
ONTARIO        MOSUNNY   67  48  50 SW16G23   29.89F
RIVERSIDE      SUNNY     69  48  47 W13G18    29.90F
PALM SPRINGS   MOSUNNY   82  42  24 N13       29.76F
EL CENTRO NAS  MOSUNNY   86  32  14 W21       29.77R
IMPERIAL       SUNNY     86  34  15 W22G29    29.74R
BLYTHE         MOSUNNY   85  36  17 SW10      29.72F
NEEDLES        MOSUNNY   84  31  14 SW12G22   29.70F
$$

NVZ020-UTZ003-300200-
SOUTHERN NEVADA-UTAH

CITY           SKY/WX    TMP DP  RH WIND       PRES   REMARKS
LAS VEGAS      MOSUNNY   76  36  23 E7        29.68F
SALT LAKE CITY PTSUNNY   54  37  52 W10       29.81F
$$

NMZ009-TXZ055-300200-
NEW MEXICO-WEST TEXAS

CITY           SKY/WX    TMP DP  RH WIND       PRES   REMARKS
ALBUQUERQUE    CLOUDY    56  32  40 W7        29.82R
EL PASO        FAIR      71  22  15 W16G31    29.81S
$$


........................KEY........................
SKY/WX - SKY CONDITION/WEATHER
TMP    - TEMPERATURE IN FAHRENHEIT
DP     - DEW POINT IN FAHRENHEIT
RH     - RELATIVE HUMIDITY IN PERCENT
WIND   - DIRECTION AND SPEED IN MILES PER HOUR (MPH)
VRB    - VARIABLE WIND DIRECTION
PRES   - MEAN SEA LEVEL PRESSURE IN INCHES OF MERCURY
         F - FALLING PRESSURE   R - RISING PRESSURE
         S - STEADY PRESSURE
VSB    - VISIBILITY IN MILES
HX     - HEAT INDEX IN FAHRENHEIT
WCI    - WIND CHILL INDEX IN FAHRENHEIT
TC     - TEMPERATURE IN CELSIUS WHICH IS ALSO KNOWN AS
         TEMPERATURE IN CENTIGRADE
AFB    - AIR FORCE BASE
         LUKE AFB IS LUKE AIR FORCE BASE
         DAVIS-MONTHAN IS DAVIS-MONTHAN AIR FORCE BASE
NAS    - NAVAL AIR STATION
         EL CENTRO NAS IS EL CENTRO NAVAL AIR STATION
N/A    - NOT AVAILABLE





USA.gov is the U.S. government's official web portal to all federal, state and local government web resources and services.